Location: Ch�ze
(42.9000°N, 0.0333°W)
Time: 00:10:32
(UTC+00:00)

SKYMED 2 - Pass Details

Date: 24 January 2021
Orbit: 621 x 623 km, 97.9° (Epoch: 24 February)

Event Time Altitude Azimuth Distance (km) Brightness Sun altitude
Rises 18:20:52 0° 10° (N) 2,913 6.8 -14.3°
Reaches altitude 10° 18:23:05 10° 7° (N) 2,001 6.0 -14.7°
Maximum altitude 18:27:24 67° 286° (WNW) 678 3.9 -15.5°
Drops below altitude 10° 18:31:41 10° 204° (SSW) 1,985 6.6 -16.3°
Sets 18:33:52 0° 201° (SSW) 2,886 7.5 -16.7°
